Regional Weather Roundup
Issued by NWS Upton, NY

Current Version | Previous Version | Text Only | Print | Product List | Glossary On
Versions: 1 2 3 4 5 6 7 8 9 10 11 12 13 14 15 16 17 18 19 20 21 22 23 24 25 26 27
000
ASUS41 KOKX 100208
RWROKX

REGIONAL WEATHER ROUNDUP
NATIONAL WEATHER SERVICE NEW YORK NY
900 PM EST SAT DEC 09 2017

NOTE: "FAIR" INDICATES FEW OR NO CLOUDS BELOW 12,000 FEET WITH NO
SIGNIFICANT WEATHER AND/OR OBSTRUCTIONS TO VISIBILITY.

NYZ071-072-176-178-NJZ106-104-100300-
NEW YORK CITY METRO AREA

CITY           SKY/WX    TMP DP  RH WIND       PRES   REMARKS
Central Park   LGT SNOW  31  30  96 CALM      29.74R FOG
Bronx Bot Gard   N/A     32  32 100 N6        29.74S WCI  26
Bronx Lehman C   N/A     32  30  93 NW6         N/A  WCI  26
LaGuardia APRT LGT SNOW  33  30  88 N8        29.72S FOG     WCI  26
Queens College   N/A     32  32 100 N8          N/A  WCI  25
Kennedy INTL   LGT SNOW  32  31  96 N10       29.73S VSB 1   WCI  24
Breezy Point     N/A    N/A N/A N/A NW8G14      N/A
Brooklyn Coll    N/A     32  32 100 NW5         N/A  WCI  27
Staten Island    N/A     32  32 100 NW6         N/A  WCI  26
Newark/Liberty LGT SNOW  32  29  88 NW9G20    29.73F FOG     WCI  24
Teterboro      LGT SNOW  31  29  92 N7        29.72F FOG     WCI  24
$$

NYZ177-179-078>081-100300-
LONG ISLAND NEW YORK

CITY           SKY/WX    TMP DP  RH WIND       PRES   REMARKS
Jones Beach      N/A     32 N/A N/A N12         N/A  WCI  23
Wantagh          N/A     32  32 100 NW6         N/A  WCI  26
Matinecock PT    N/A     32 N/A N/A N13         N/A  WCI  22
Farmingdale    LGT SNOW  32  31  96 N7        29.71R FOG     WCI  26
MacArthur/ISP  LGT SNOW  33  32  96 N7        29.68F FOG     WCI  27
Shirley        LGT SNOW  33  33 100 N8        29.68F FOG     WCI  26
Mt Sinai Harb    N/A    N/A N/A N/A N14         N/A
Westhampton    LGT SNOW  33  31  92 N8        29.67F FOG     WCI  26
East Hampton   LGT RAIN  32  32  99 N8        29.65F WCI  25
Southold         N/A     32  32 100 N10         N/A  WCI  24
Montauk          N/A     37  35  92 N13G20    29.65R WCI  29
$$

NYZ052-065-067-100300-
HUDSON VALLEY

CITY           SKY/WX    TMP DP  RH WIND       PRES   REMARKS
White Plains   LGT SNOW  30  27  88 NW10      29.69F FOG     WCI  21
Larchmont Harb   N/A    N/A N/A N/A NW6         N/A
Croton On Huds   N/A    N/A N/A N/A N1          N/A
Somers           N/A     30  28  93 NW5         N/A  WCI  25
Brewster         N/A     30  28  93 N5          N/A  WCI  25
Newburgh       NOT AVBL
Montgomery     LGT SNOW  28  25  88 CALM      29.73R FOG
Otisville        N/A     28  28 100 S1          N/A
Warwick          N/A     28  28 100 SW1         N/A
Suffern          N/A     30  28  93 N5          N/A  WCI  25
Poughkeepsie   LGT SNOW  29  26  89 CALM      29.74R FOG
Albany         LGT SNOW  28  24  85 NW6       29.75F VSB 3/4 WCI  22
$$

NJZ001-105-106-008-010-013-015-019>022-104-100300-
NEW JERSEY

CITY           SKY/WX    TMP DP  RH WIND       PRES   REMARKS
Newark/Liberty LGT SNOW  32  29  88 NW9G20    29.73F FOG     WCI  24
Teterboro      LGT SNOW  31  29  92 N7        29.72F FOG     WCI  24
Caldwell       LGT SNOW  30  28  92 CALM      29.74F FOG
Somerville     LGT SNOW  30  29  96 CALM      29.73S FOG
Linden         LGT SNOW  31  28  90 CALM      29.74S
Perth Amboy      N/A    N/A N/A N/A NW8         N/A
Sussex         LGT SNOW  28  27  96 CALM      29.73S FOG
Andover        NOT AVBL
Trenton        LGT SNOW  30  28  92 NW5       29.74S FOG     WCI  25
Millville      LGT SNOW  30  30 100 NW6       29.77S FOG     WCI  24
Atlantic City  LGT SNOW  31  30  96 NW10      29.75R FOG     WCI  22
Wrightstown    LGT SNOW  30  28  93 NW9       29.72S FOG     WCI  22
Toms River     LGT SNOW  30  29  96 NW7       29.74S FOG     WCI  23
Belmar         LGT SNOW  30  29  96 W8        29.74R FOG     WCI  22
$$

PAZ047>061-062-071-100300-
EASTERN PENNSYLVANIA

CITY           SKY/WX    TMP DP  RH WIND       PRES   REMARKS
Philadelphia   LGT SNOW  31  28  89 NW6       29.78R FOG     WCI  25
Allentown      LGT SNOW  30  26  85 W5        29.75S VSB 1   WCI  25
Scranton       CLOUDY    27  26  96 SW5       29.73R FOG     WCI  22
$$

CTZ002-004>006-009-010-012-RIZ004-006-007-MAZ004-011-015-100300-
SOUTHERN NEW ENGLAND
 IN CT

CITY           SKY/WX    TMP DP  RH WIND       PRES   REMARKS
Bradley INTL   LGT SNOW  30  28  92 N9        29.69S FOG     WCI  22
Hartford       LGT SNOW  31  29  92 N6        29.70R FOG     WCI  25
Danbury        LGT SNOW  31  28  89 W3        29.71S FOG
Wtrbury/Oxford LGT SNOW  28  27  93 N7        29.68R VSB 1   WCI  21
Norwalk Harbor   N/A    N/A N/A N/A NW7         N/A
Bridgeport     LGT SNOW  32  29  88 N6        29.70R FOG     WCI  26
Meriden        LGT SNOW  30  28  92 N5        29.70S FOG     WCI  25
New Haven      LGT SNOW  31  29  92 N7        29.68S FOG     WCI  24
Chester        LGT SNOW  30  28  93 N7        29.66S WCI  23
Groton         LGT SNOW  32  30  92 N12       29.66R FOG     WCI  23
Wilimantic     LGT SNOW  32  29  88 N5        29.67S FOG     WCI  27

 IN RI

CITY           SKY/WX    TMP DP  RH WIND       PRES   REMARKS
Providence     LGT SNOW  32  32 100 N12       29.64F FOG     WCI  23
Block Island   LGT RAIN  34  33  96 N13G21    29.63S FOG     WCI  25
Westerly       LGT SNOW  33  32  96 N9        29.66R FOG     WCI  25
 IN MA

CITY           SKY/WX    TMP DP  RH WIND       PRES   REMARKS
Boston         LGT SNOW  31  30  96 N10       29.65F VSB 1   WCI  22
Worcester      LGT SNOW  28  25  88 N10       29.63F FOG     WCI  19
Westfield      LGT SNOW  30  29  96 N8        29.69S FOG     WCI  22
Provincetown   LGT RAIN  39  37  92 N20G26    29.59S WCI  29
Nantucket      LGT RAIN  42  42 100 N21G30    29.52F
$$

ANZ330-335-338-340-345-350-353-355-100300-
COASTAL MARINE OBSERVATIONS


STATION/POSITION TIME  SKY/WX   TEMP    WIND        PRES    VSBY  WAVE
                                AIR SEA DIR/SP/G                  HT/PER
                 (UTC)          (F)     (DEG/KT/KT) (MB)    (MI)  (FT/S)
NY HARB ENTRANCE 0050            36 52  350/ 14/ 17 1005.5          3/ 4
20 S FIRE ISLAND 0050            38 53   10/ 16/ 19 1005.2          5/ 6
GREAT SOUTH BAY  0130            34 45  350/  8/ 12   N/A
HUDSON CANYON    0050            46 56   20/ 19/ 23 1002.5         10/ 8
KINGS POINT      0124            31 47   30/ 11/ 14 1007.5
EXECUTION ROCKS  0130            33     350/ 10/ 14   N/A
WESTERN LI SOUND 0119            32     360/ 10/ 14   N/A           1/ 4
CENTRAL LI SOUND NOT AVBL
ROBBINS REEF     0124            31     330/ 11/ 14 1007.1
$$


>>>>>>>>>>>>>>>>>>>>>>>>>>>> KEY <<<<<<<<<<<<<<<<<<<<<<<<<<<
>                                                          <
>     SKY/WX - Sky Condition/Present Weather               <
>     TMP    - Temperature in Fahrenheit                   <
>     DP     - Dew Point in Fahrenheit                     <
>     RH     - Relative Humidity in Percent                <
>     WIND   - Direction (from) and Speed in MPH           <
>     PRES   - Mean Sea Level Pressure (inches of Hg)      <
>     WCI    - Wind Chill Index                            <
>     VSB    - VISIBILITY IN MILES                         <
>     HX     - HEAT INDEX                                  <
>     TC     - TEMPERATURE IN CELSIUS                      <
>     VRB    - VARIABLE WIND DIRECTION                     <
>                                                          <
>>>>>>>>>>>>>>>>>>>>>>>>>>>> KEY <<<<<<<<<<<<<<<<<<<<<<<<<<<




USA.gov is the U.S. government's official web portal to all federal, state and local government web resources and services.